Time,TemperatureF,DewpointF,PressureIn,WindDirection,WindDirectionDegrees,WindSpeedMPH,WindSpeedGustMPH,Humidity,HourlyPrecipIn,Conditions,Clouds,dailyrainin,SoftwareType,DateUTC
2013-09-23 00:02:00,58.8,48.7,30.00,NE,45,1.1,1.6,69,0.00,,---,0.00,VWS V14.01,2013-09-23 07:02:00,
2013-09-23 00:07:00,58.8,48.7,30.00,ENE,68,1.3,1.6,69,0.00,,---,0.00,VWS V14.01,2013-09-23 07:07:00,
2013-09-23 00:12:00,58.8,49.1,30.00,ENE,68,0.0,1.1,70,0.00,,---,0.00,VWS V14.01,2013-09-23 07:12:00,
2013-09-23 00:17:00,58.8,49.1,30.00,NE,45,0.0,0.0,70,0.00,,---,0.00,VWS V14.01,2013-09-23 07:17:00,
2013-09-23 00:22:00,58.8,49.1,29.97,ENE,68,0.0,1.1,70,0.00,,---,0.00,VWS V14.01,2013-09-23 07:22:00,
2013-09-23 00:27:00,58.6,48.9,29.97,NE,45,0.0,0.0,70,0.00,,---,0.00,VWS V14.01,2013-09-23 07:27:00,
2013-09-23 00:32:00,58.6,48.9,29.97,ENE,68,0.0,0.0,70,0.00,,---,0.00,VWS V14.01,2013-09-23 07:32:00,
2013-09-23 00:37:00,58.6,48.9,30.00,SE,135,0.0,0.0,70,0.00,,---,0.00,VWS V14.01,2013-09-23 07:37:00,
2013-09-23 00:42:00,57.9,48.2,30.00,East,90,0.0,0.0,70,0.00,,---,0.00,VWS V14.01,2013-09-23 07:42:00,
2013-09-23 00:47:00,57.9,48.2,30.00,ESE,112,0.0,0.0,70,0.00,,---,0.00,VWS V14.01,2013-09-23 07:47:00,
2013-09-23 00:52:00,57.9,48.2,30.00,East,90,0.0,0.0,70,0.00,,---,0.00,VWS V14.01,2013-09-23 07:52:00,
2013-09-23 00:57:00,57.9,48.2,30.00,East,90,1.6,1.6,70,0.00,,---,0.00,VWS V14.01,2013-09-23 07:57:00,
2013-09-23 01:02:00,57.9,48.2,30.00,NE,45,0.0,1.1,70,0.00,,---,0.00,VWS V14.01,2013-09-23 08:02:00,
2013-09-23 01:07:00,57.9,48.2,30.00,ENE,68,1.1,1.1,70,0.00,,---,0.00,VWS V14.01,2013-09-23 08:07:00,
2013-09-23 01:12:00,57.9,48.2,30.00,ENE,68,0.0,0.0,70,0.00,,---,0.00,VWS V14.01,2013-09-23 08:12:00,
2013-09-23 01:17:00,57.9,48.2,30.00,ENE,68,0.0,0.9,70,0.00,,---,0.00,VWS V14.01,2013-09-23 08:17:00,
2013-09-23 01:22:00,57.9,48.2,30.00,ENE,68,1.1,1.1,70,0.00,,---,0.00,VWS V14.01,2013-09-23 08:22:00,
2013-09-23 01:27:00,57.9,48.2,30.00,NE,45,0.0,2.0,70,0.00,,---,0.00,VWS V14.01,2013-09-23 08:27:00,
2013-09-23 01:32:00,57.9,48.2,30.00,NE,45,0.0,1.3,70,0.00,,---,0.00,VWS V14.01,2013-09-23 08:32:00,
2013-09-23 01:37:00,57.9,48.2,30.00,East,90,2.0,2.0,70,0.00,,---,0.00,VWS V14.01,2013-09-23 08:37:00,
2013-09-23 01:42:00,57.9,48.2,30.00,ESE,112,1.1,2.2,70,0.00,,---,0.00,VWS V14.01,2013-09-23 08:42:00,
2013-09-23 01:47:00,57.9,48.2,30.00,East,90,2.9,2.9,70,0.00,,---,0.00,VWS V14.01,2013-09-23 08:47:00,
2013-09-23 01:52:00,57.9,48.2,30.00,ENE,68,2.2,2.9,70,0.00,,---,0.00,VWS V14.01,2013-09-23 08:52:00,
2013-09-23 01:57:00,57.9,48.2,30.00,South,180,0.0,2.0,70,0.00,,---,0.00,VWS V14.01,2013-09-23 08:57:00,
2013-09-23 02:02:00,57.9,48.2,30.00,ESE,112,0.0,2.0,70,0.00,,---,0.00,VWS V14.01,2013-09-23 09:02:00,
2013-09-23 02:07:00,57.9,48.2,30.00,East,90,0.0,0.9,70,0.00,,---,0.00,VWS V14.01,2013-09-23 09:07:00,
2013-09-23 02:12:00,57.9,48.2,30.00,ESE,112,0.0,0.0,70,0.00,,---,0.00,VWS V14.01,2013-09-23 09:12:00,
2013-09-23 02:17:00,57.9,48.2,30.00,South,180,0.0,0.0,70,0.00,,---,0.00,VWS V14.01,2013-09-23 09:17:00,
2013-09-23 02:22:00,57.9,48.2,29.97,NNW,338,0.0,0.0,70,0.00,,---,0.00,VWS V14.01,2013-09-23 09:22:00,
2013-09-23 02:27:00,57.9,48.2,29.97,NNE,22,0.0,0.0,70,0.00,,---,0.00,VWS V14.01,2013-09-23 09:27:00,
2013-09-23 02:32:00,57.9,48.2,29.97,NNE,22,0.0,0.0,70,0.00,,---,0.00,VWS V14.01,2013-09-23 09:32:00,
2013-09-23 02:37:00,57.9,48.2,29.97,South,180,0.9,0.9,70,0.00,,---,0.00,VWS V14.01,2013-09-23 09:37:00,
2013-09-23 02:42:00,57.9,48.2,29.97,East,90,1.3,2.0,70,0.00,,---,0.00,VWS V14.01,2013-09-23 09:42:00,
2013-09-23 02:47:00,57.9,48.2,29.97,ESE,112,2.7,2.9,70,0.00,,---,0.00,VWS V14.01,2013-09-23 09:47:00,
2013-09-23 02:52:00,57.9,48.2,29.97,ENE,68,2.5,2.9,70,0.00,,---,0.00,VWS V14.01,2013-09-23 09:52:00,
2013-09-23 02:57:00,57.9,48.2,29.97,ENE,68,0.0,2.5,70,0.00,,---,0.00,VWS V14.01,2013-09-23 09:57:00,
2013-09-23 03:02:00,57.9,48.2,29.97,NW,315,1.6,1.6,70,0.00,,---,0.00,VWS V14.01,2013-09-23 10:02:00,
2013-09-23 03:07:00,57.9,48.2,29.97,NE,45,0.0,1.6,70,0.00,,---,0.00,VWS V14.01,2013-09-23 10:07:00,
2013-09-23 03:12:00,57.9,48.2,29.97,North,0,0.0,0.0,70,0.00,,---,0.00,VWS V14.01,2013-09-23 10:12:00,
2013-09-23 03:17:00,57.9,48.2,29.97,NNE,22,0.0,0.0,70,0.00,,---,0.00,VWS V14.01,2013-09-23 10:17:00,
2013-09-23 03:22:00,57.9,48.2,29.97,NE,45,0.0,0.0,70,0.00,,---,0.00,VWS V14.01,2013-09-23 10:22:00,
2013-09-23 03:27:00,57.9,48.2,29.97,NNE,22,0.0,0.0,70,0.00,,---,0.00,VWS V14.01,2013-09-23 10:27:00,
2013-09-23 03:32:00,57.9,48.2,29.97,NE,45,0.0,0.0,70,0.00,,---,0.00,VWS V14.01,2013-09-23 10:32:00,
2013-09-23 03:37:00,57.9,48.2,29.97,ENE,68,1.3,1.3,70,0.00,,---,0.00,VWS V14.01,2013-09-23 10:37:00,
2013-09-23 03:42:00,57.9,48.2,29.97,ENE,68,0.0,0.0,70,0.00,,---,0.00,VWS V14.01,2013-09-23 10:42:00,
2013-09-23 03:48:00,57.9,48.2,29.97,South,180,0.0,1.6,70,0.00,,---,0.00,VWS V14.01,2013-09-23 10:48:00,
2013-09-23 03:53:00,57.9,48.2,29.97,South,180,0.0,1.1,70,0.00,,---,0.00,VWS V14.01,2013-09-23 10:53:00,
2013-09-23 03:58:00,57.9,48.2,29.97,ESE,112,0.0,2.5,70,0.00,,---,0.00,VWS V14.01,2013-09-23 10:58:00,
2013-09-23 04:03:00,57.9,48.2,29.97,East,90,1.3,2.0,70,0.00,,---,0.00,VWS V14.01,2013-09-23 11:03:00,
2013-09-23 04:08:00,57.9,48.2,29.97,ESE,112,1.3,2.2,70,0.00,,---,0.00,VWS V14.01,2013-09-23 11:08:00,
2013-09-23 04:13:00,57.9,48.2,29.97,East,90,1.3,1.6,70,0.00,,---,0.00,VWS V14.01,2013-09-23 11:13:00,
2013-09-23 04:18:00,57.9,48.2,29.97,East,90,1.6,1.6,70,0.00,,---,0.00,VWS V14.01,2013-09-23 11:18:00,
2013-09-23 04:23:00,57.9,48.2,29.97,East,90,1.6,1.6,70,0.00,,---,0.00,VWS V14.01,2013-09-23 11:23:00,
2013-09-23 04:28:00,57.9,48.2,29.97,East,90,1.6,2.2,70,0.00,,---,0.00,VWS V14.01,2013-09-23 11:28:00,
2013-09-23 04:33:00,55.8,48.3,29.97,East,90,1.6,1.6,76,0.00,,---,0.00,VWS V14.01,2013-09-23 11:33:00,
2013-09-23 04:38:00,55.8,48.3,29.97,ENE,68,1.6,1.6,76,0.00,,---,0.00,VWS V14.01,2013-09-23 11:38:00,
2013-09-23 04:43:00,55.8,48.3,29.97,ENE,68,0.0,1.6,76,0.00,,---,0.00,VWS V14.01,2013-09-23 11:43:00,
2013-09-23 04:48:00,55.8,48.3,29.97,ENE,68,1.3,1.6,76,0.00,,---,0.00,VWS V14.01,2013-09-23 11:48:00,
2013-09-23 04:53:00,55.8,48.3,29.97,East,90,0.0,1.3,76,0.00,,---,0.00,VWS V14.01,2013-09-23 11:53:00,
2013-09-23 04:58:00,55.8,48.3,29.97,East,90,0.0,1.6,76,0.00,,---,0.00,VWS V14.01,2013-09-23 11:58:00,
2013-09-23 05:03:00,55.8,48.3,29.97,East,90,0.0,0.0,76,0.00,,---,0.00,VWS V14.01,2013-09-23 12:03:00,
2013-09-23 05:08:00,55.8,48.3,29.97,East,90,1.3,1.3,76,0.00,,---,0.00,VWS V14.01,2013-09-23 12:08:00,
2013-09-23 05:13:00,55.8,48.3,29.97,East,90,1.1,2.5,76,0.00,,---,0.00,VWS V14.01,2013-09-23 12:13:00,
2013-09-23 05:18:00,55.9,48.8,29.97,ESE,112,0.0,1.6,77,0.00,,---,0.00,VWS V14.01,2013-09-23 12:18:00,
2013-09-23 05:23:00,55.9,48.8,29.97,ENE,68,0.0,0.0,77,0.00,,---,0.00,VWS V14.01,2013-09-23 12:23:00,
2013-09-23 05:28:00,55.6,48.5,29.97,South,180,0.0,0.0,77,0.00,,---,0.00,VWS V14.01,2013-09-23 12:28:00,
2013-09-23 05:33:00,55.6,48.5,29.97,North,0,0.0,1.1,77,0.00,,---,0.00,VWS V14.01,2013-09-23 12:33:00,
2013-09-23 05:38:00,55.6,48.5,29.97,NE,45,0.0,2.0,77,0.00,,---,0.00,VWS V14.01,2013-09-23 12:38:00,
2013-09-23 05:43:00,55.6,48.5,29.97,NE,45,1.1,1.1,77,0.00,,---,0.00,VWS V14.01,2013-09-23 12:43:00,
2013-09-23 05:48:00,55.6,48.5,29.97,NE,45,0.0,1.6,77,0.00,,---,0.00,VWS V14.01,2013-09-23 12:48:00,
2013-09-23 05:53:00,55.6,48.5,29.97,SE,135,0.0,0.0,77,0.00,,---,0.00,VWS V14.01,2013-09-23 12:53:00,
2013-09-23 05:58:00,55.6,48.5,29.97,ESE,112,1.1,1.1,77,0.00,,---,0.00,VWS V14.01,2013-09-23 12:58:00,
2013-09-23 06:03:00,55.6,48.5,29.97,East,90,1.3,1.6,77,0.00,,---,0.00,VWS V14.01,2013-09-23 13:03:00,
2013-09-23 06:08:00,55.6,48.5,29.97,NNE,22,0.0,1.6,77,0.00,,---,0.00,VWS V14.01,2013-09-23 13:08:00,
2013-09-23 06:13:00,55.6,48.5,29.97,ENE,68,0.0,0.0,77,0.00,,---,0.00,VWS V14.01,2013-09-23 13:13:00,
2013-09-23 06:18:00,55.6,48.5,29.97,ENE,68,0.0,0.0,77,0.00,,---,0.00,VWS V14.01,2013-09-23 13:18:00,
2013-09-23 06:23:00,55.6,48.5,29.97,ENE,68,0.0,1.6,77,0.00,,---,0.00,VWS V14.01,2013-09-23 13:23:00,
2013-09-23 06:28:00,55.6,48.5,29.97,SSE,158,0.0,1.3,77,0.00,,---,0.00,VWS V14.01,2013-09-23 13:28:00,
2013-09-23 06:33:00,55.6,48.5,29.97,ENE,68,0.0,0.0,77,0.00,,---,0.00,VWS V14.01,2013-09-23 13:33:00,
2013-09-23 06:38:00,54.9,48.8,29.97,East,90,0.0,0.0,80,0.00,,---,0.00,VWS V14.01,2013-09-23 13:38:00,
2013-09-23 06:43:00,54.9,48.8,29.97,ESE,112,0.0,0.0,80,0.00,,---,0.00,VWS V14.01,2013-09-23 13:43:00,
2013-09-23 06:48:00,54.9,48.8,29.97,SE,135,2.0,2.0,80,0.00,,---,0.00,VWS V14.01,2013-09-23 13:48:00,
2013-09-23 06:53:00,54.9,48.8,29.97,SE,135,0.0,2.0,80,0.00,,---,0.00,VWS V14.01,2013-09-23 13:53:00,
2013-09-23 06:58:00,54.9,48.8,29.97,ESE,112,0.0,0.0,80,0.00,,---,0.00,VWS V14.01,2013-09-23 13:58:00,
2013-09-23 07:03:00,54.9,48.8,29.97,East,90,1.3,1.3,80,0.00,,---,0.00,VWS V14.01,2013-09-23 14:03:00,
2013-09-23 07:08:00,55.0,49.0,29.97,ENE,68,1.6,2.0,80,0.00,,---,0.00,VWS V14.01,2013-09-23 14:08:00,
2013-09-23 07:13:00,55.0,49.0,29.97,East,90,0.0,0.0,80,0.00,,---,0.00,VWS V14.01,2013-09-23 14:13:00,
2013-09-23 07:18:00,55.0,49.0,29.97,East,90,1.3,1.3,80,0.00,,---,0.00,VWS V14.01,2013-09-23 14:18:00,
2013-09-23 07:23:00,55.0,49.0,29.97,East,90,0.9,1.3,80,0.00,,---,0.00,VWS V14.01,2013-09-23 14:23:00,
2013-09-23 07:28:00,55.6,49.5,29.97,East,90,1.3,1.3,80,0.00,,---,0.00,VWS V14.01,2013-09-23 14:28:00,
2013-09-23 07:33:00,55.4,49.3,29.97,SE,135,1.1,1.1,80,0.00,,---,0.00,VWS V14.01,2013-09-23 14:33:00,
2013-09-23 07:38:00,55.4,49.3,29.97,ESE,112,0.0,0.0,80,0.00,,---,0.00,VWS V14.01,2013-09-23 14:38:00,
2013-09-23 07:43:00,55.4,49.3,29.97,ESE,112,0.0,0.0,80,0.00,,---,0.00,VWS V14.01,2013-09-23 14:43:00,
2013-09-23 07:48:00,54.9,48.8,29.97,WNW,292,0.0,0.0,80,0.00,,---,0.00,VWS V14.01,2013-09-23 14:48:00,
2013-09-23 07:53:00,54.9,48.8,30.00,South,180,0.0,0.0,80,0.00,,---,0.00,VWS V14.01,2013-09-23 14:53:00,
2013-09-23 07:58:00,54.9,48.8,30.00,South,180,0.0,0.0,80,0.00,,---,0.00,VWS V14.01,2013-09-23 14:58:00,
2013-09-23 08:03:00,54.9,48.8,30.00,North,0,0.0,0.0,80,0.00,,---,0.00,VWS V14.01,2013-09-23 15:03:00,
2013-09-23 08:08:00,54.7,49.0,30.00,SW,225,0.0,0.0,81,0.00,,---,0.00,VWS V14.01,2013-09-23 15:08:00,
2013-09-23 08:13:00,54.7,49.0,30.00,SW,225,0.0,0.0,81,0.00,,---,0.00,VWS V14.01,2013-09-23 15:13:00,
2013-09-23 08:18:00,54.7,49.0,30.00,SW,225,0.0,0.0,81,0.00,,---,0.00,VWS V14.01,2013-09-23 15:18:00,
2013-09-23 08:23:00,54.7,49.0,30.00,NNW,338,0.0,0.0,81,0.00,,---,0.00,VWS V14.01,2013-09-23 15:23:00,
2013-09-23 08:28:00,54.7,49.0,30.00,South,180,0.0,0.0,81,0.00,,---,0.00,VWS V14.01,2013-09-23 15:28:00,
2013-09-23 08:34:00,54.7,49.0,30.00,NW,315,0.0,0.0,81,0.00,,---,0.00,VWS V14.01,2013-09-23 15:34:00,
2013-09-23 08:39:00,54.7,49.0,30.00,SSE,158,0.9,0.9,81,0.00,,---,0.00,VWS V14.01,2013-09-23 15:39:00,
2013-09-23 08:44:00,54.7,49.0,30.00,South,180,0.0,0.0,81,0.00,,---,0.00,VWS V14.01,2013-09-23 15:44:00,
2013-09-23 08:49:00,56.3,50.9,30.00,South,180,0.0,0.0,82,0.00,,---,0.00,VWS V14.01,2013-09-23 15:49:00,
2013-09-23 08:54:00,56.3,50.9,30.00,South,180,0.0,0.0,82,0.00,,---,0.00,VWS V14.01,2013-09-23 15:54:00,
2013-09-23 08:59:00,56.3,50.9,30.00,SE,135,0.0,0.0,82,0.00,,---,0.00,VWS V14.01,2013-09-23 15:59:00,
2013-09-23 09:04:00,56.3,50.9,30.00,South,180,0.0,0.0,82,0.00,,---,0.00,VWS V14.01,2013-09-23 16:04:00,
2013-09-23 09:09:00,56.3,50.9,30.00,West,270,0.0,0.0,82,0.00,,---,0.00,VWS V14.01,2013-09-23 16:09:00,
2013-09-23 09:14:00,56.3,50.9,30.00,NW,315,0.0,0.9,82,0.00,,---,0.00,VWS V14.01,2013-09-23 16:14:00,
2013-09-23 09:19:00,56.3,50.9,30.00,WNW,292,0.0,0.0,82,0.00,,---,0.00,VWS V14.01,2013-09-23 16:19:00,
2013-09-23 09:24:00,56.3,50.9,30.00,NNW,338,1.6,1.6,82,0.00,,---,0.00,VWS V14.01,2013-09-23 16:24:00,
2013-09-23 09:29:00,56.3,50.9,30.00,NNW,338,2.0,2.0,82,0.00,,---,0.00,VWS V14.01,2013-09-23 16:29:00,
2013-09-23 09:34:00,56.3,50.9,30.00,NW,315,0.0,0.0,82,0.00,,---,0.00,VWS V14.01,2013-09-23 16:34:00,
2013-09-23 09:39:00,56.3,50.9,30.00,WNW,292,0.9,2.0,82,0.00,,---,0.00,VWS V14.01,2013-09-23 16:39:00,
2013-09-23 09:44:00,56.3,50.9,30.00,WNW,292,1.1,2.9,82,0.00,,---,0.00,VWS V14.01,2013-09-23 16:44:00,
2013-09-23 09:49:00,56.3,50.9,30.00,WNW,292,0.9,2.2,82,0.00,,---,0.00,VWS V14.01,2013-09-23 16:49:00,
2013-09-23 09:54:00,56.3,50.9,30.00,SE,135,0.0,0.0,82,0.00,,---,0.00,VWS V14.01,2013-09-23 16:54:00,
2013-09-23 09:59:00,56.3,50.9,30.00,NW,315,1.6,1.6,82,0.00,,---,0.00,VWS V14.01,2013-09-23 16:59:00,
2013-09-23 10:04:00,56.3,50.9,30.00,West,270,0.0,0.0,82,0.00,,---,0.00,VWS V14.01,2013-09-23 17:04:00,
2013-09-23 10:09:00,56.3,50.9,30.00,SSE,158,2.0,2.0,82,0.00,,---,0.00,VWS V14.01,2013-09-23 17:09:00,
2013-09-23 10:14:00,56.3,50.9,30.00,WNW,292,0.0,2.0,82,0.00,,---,0.00,VWS V14.01,2013-09-23 17:14:00,
2013-09-23 10:19:00,56.3,50.9,30.00,East,90,1.6,1.6,82,0.00,,---,0.00,VWS V14.01,2013-09-23 17:19:00,
2013-09-23 10:24:00,56.3,50.9,30.00,NW,315,2.0,3.1,82,0.00,,---,0.00,VWS V14.01,2013-09-23 17:24:00,
2013-09-23 10:29:00,56.3,50.9,30.00,SE,135,2.2,2.2,82,0.00,,---,0.00,VWS V14.01,2013-09-23 17:29:00,
2013-09-23 10:34:00,56.3,50.9,30.00,West,270,0.0,2.0,82,0.00,,---,0.00,VWS V14.01,2013-09-23 17:34:00,
2013-09-23 10:39:00,56.3,50.9,30.00,NW,315,1.1,1.1,82,0.00,,---,0.00,VWS V14.01,2013-09-23 17:39:00,
2013-09-23 10:44:00,56.3,50.9,30.00,WNW,292,2.5,2.5,82,0.00,,---,0.00,VWS V14.01,2013-09-23 17:44:00,
2013-09-23 10:49:00,56.3,50.9,30.00,South,180,1.1,2.5,82,0.00,,---,0.00,VWS V14.01,2013-09-23 17:49:00,
2013-09-23 10:54:00,56.3,50.9,30.00,South,180,2.2,2.7,82,0.00,,---,0.00,VWS V14.01,2013-09-23 17:54:00,
2013-09-23 10:59:00,56.3,50.9,30.00,South,180,3.1,3.1,82,0.00,,---,0.00,VWS V14.01,2013-09-23 17:59:00,
2013-09-23 11:04:00,56.3,50.9,30.00,North,0,3.1,4.3,82,0.00,,---,0.00,VWS V14.01,2013-09-23 18:04:00,
2013-09-23 11:09:00,56.3,50.9,30.00,West,270,0.0,0.0,82,0.00,,---,0.00,VWS V14.01,2013-09-23 18:09:00,
2013-09-23 11:14:00,56.3,50.9,30.00,South,180,2.2,2.2,82,0.00,,---,0.00,VWS V14.01,2013-09-23 18:14:00,
2013-09-23 11:19:00,56.3,50.9,30.00,SE,135,2.7,2.7,82,0.00,,---,0.00,VWS V14.01,2013-09-23 18:19:00,
2013-09-23 11:24:00,56.3,50.9,30.00,West,270,4.3,4.3,82,0.00,,---,0.00,VWS V14.01,2013-09-23 18:24:00,
2013-09-23 11:29:00,56.3,50.9,30.00,NW,315,3.4,3.4,82,0.00,,---,0.00,VWS V14.01,2013-09-23 18:29:00,
2013-09-23 11:34:00,56.3,50.9,30.00,SE,135,0.0,3.4,82,0.00,,---,0.00,VWS V14.01,2013-09-23 18:34:00,
2013-09-23 11:39:00,56.3,50.9,30.00,SSE,158,0.9,1.3,82,0.00,,---,0.00,VWS V14.01,2013-09-23 18:39:00,
2013-09-23 11:44:00,56.3,50.9,30.00,South,180,0.0,0.0,82,0.00,,---,0.00,VWS V14.01,2013-09-23 18:44:00,
2013-09-23 11:49:00,56.3,50.9,30.00,West,270,2.2,2.2,82,0.00,,---,0.00,VWS V14.01,2013-09-23 18:49:00,
2013-09-23 11:54:00,56.3,50.9,29.97,NW,315,3.1,3.1,82,0.00,,---,0.00,VWS V14.01,2013-09-23 18:54:00,
2013-09-23 11:59:00,56.3,50.9,29.97,West,270,4.0,4.0,82,0.00,,---,0.00,VWS V14.01,2013-09-23 18:59:00,
2013-09-23 12:04:00,70.7,56.6,29.97,ESE,112,2.7,2.7,61,0.00,,---,0.00,VWS V14.01,2013-09-23 19:04:00,
2013-09-23 12:09:00,70.5,57.8,29.97,North,0,2.2,2.2,64,0.00,,---,0.00,VWS V14.01,2013-09-23 19:09:00,
2013-09-23 12:14:00,70.7,57.9,29.97,West,270,0.0,0.0,64,0.00,,---,0.00,VWS V14.01,2013-09-23 19:14:00,
2013-09-23 12:19:00,70.9,58.1,29.97,NNW,338,2.7,3.8,64,0.00,,---,0.00,VWS V14.01,2013-09-23 19:19:00,
2013-09-23 12:24:00,71.6,58.3,29.97,West,270,3.8,3.8,63,0.00,,---,0.00,VWS V14.01,2013-09-23 19:24:00,
2013-09-23 12:29:00,72.1,58.4,29.97,NW,315,2.7,2.7,62,0.00,,---,0.00,VWS V14.01,2013-09-23 19:29:00,
2013-09-23 12:34:00,72.0,57.8,29.97,NNW,338,3.6,3.6,61,0.00,,---,0.00,VWS V14.01,2013-09-23 19:34:00,
2013-09-23 12:39:00,72.0,57.8,29.97,NNW,338,3.1,3.1,61,0.00,,---,0.00,VWS V14.01,2013-09-23 19:39:00,
2013-09-23 12:44:00,72.0,57.8,29.97,NNE,22,1.6,1.6,61,0.00,,---,0.00,VWS V14.01,2013-09-23 19:44:00,
2013-09-23 12:49:00,72.0,57.8,29.97,West,270,1.6,4.7,61,0.00,,---,0.00,VWS V14.01,2013-09-23 19:49:00,
2013-09-23 12:54:00,72.0,57.8,29.97,West,270,4.7,4.7,61,0.00,,---,0.00,VWS V14.01,2013-09-23 19:54:00,
2013-09-23 12:59:00,73.2,58.5,29.97,West,270,0.9,1.3,60,0.00,,---,0.00,VWS V14.01,2013-09-23 19:59:00,
2013-09-23 13:04:00,73.2,58.5,29.97,South,180,3.8,4.5,60,0.00,,---,0.00,VWS V14.01,2013-09-23 20:04:00,
2013-09-23 13:09:00,73.2,58.5,29.97,West,270,2.5,2.5,60,0.00,,---,0.00,VWS V14.01,2013-09-23 20:09:00,
2013-09-23 13:14:00,73.2,58.5,29.97,SE,135,3.4,3.4,60,0.00,,---,0.00,VWS V14.01,2013-09-23 20:14:00,
2013-09-23 13:19:00,74.5,57.8,29.97,NNW,338,2.9,3.6,56,0.00,,---,0.00,VWS V14.01,2013-09-23 20:19:00,
2013-09-23 13:24:00,74.3,58.1,29.94,WNW,292,3.8,3.8,57,0.00,,---,0.00,VWS V14.01,2013-09-23 20:24:00,
2013-09-23 13:29:00,74.3,58.1,29.94,NE,45,0.0,0.9,57,0.00,,---,0.00,VWS V14.01,2013-09-23 20:29:00,
2013-09-23 13:34:00,75.7,57.9,29.94,North,0,2.9,2.9,54,0.00,,---,0.00,VWS V14.01,2013-09-23 20:34:00,
2013-09-23 13:39:00,75.6,57.8,29.94,NNW,338,2.5,2.7,54,0.00,,---,0.00,VWS V14.01,2013-09-23 20:39:00,
2013-09-23 13:44:00,76.3,58.4,29.94,West,270,3.6,5.6,54,0.00,,---,0.00,VWS V14.01,2013-09-23 20:44:00,
2013-09-23 13:49:00,76.3,58.4,29.94,NNW,338,2.5,4.0,54,0.00,,---,0.00,VWS V14.01,2013-09-23 20:49:00,
2013-09-23 13:54:00,76.5,57.0,29.94,NW,315,0.9,2.0,51,0.00,,---,0.00,VWS V14.01,2013-09-23 20:54:00,
2013-09-23 13:59:00,76.5,57.0,29.94,NW,315,3.1,3.1,51,0.00,,---,0.00,VWS V14.01,2013-09-23 20:59:00,
2013-09-23 14:04:00,77.5,59.1,29.94,South,180,3.6,3.8,53,0.00,,---,0.00,VWS V14.01,2013-09-23 21:04:00,
2013-09-23 14:09:00,78.4,59.4,29.94,West,270,3.8,3.8,52,0.00,,---,0.00,VWS V14.01,2013-09-23 21:09:00,
2013-09-23 14:14:00,79.0,58.2,29.94,West,270,2.9,4.7,49,0.00,,---,0.00,VWS V14.01,2013-09-23 21:14:00,
2013-09-23 14:20:00,78.8,58.0,29.94,West,270,1.1,2.7,49,0.00,,---,0.00,VWS V14.01,2013-09-23 21:20:00,
2013-09-23 14:25:00,79.0,58.8,29.91,West,270,1.3,4.0,50,0.00,,---,0.00,VWS V14.01,2013-09-23 21:25:00,
2013-09-23 14:30:00,79.7,58.3,29.91,NNE,22,1.1,3.4,48,0.00,,---,0.00,VWS V14.01,2013-09-23 21:30:00,
2013-09-23 14:35:00,79.7,57.7,29.91,NW,315,6.0,6.0,47,0.00,,---,0.00,VWS V14.01,2013-09-23 21:35:00,
2013-09-23 14:40:00,79.9,58.5,29.91,NNW,338,5.6,5.6,48,0.00,,---,0.00,VWS V14.01,2013-09-23 21:40:00,
2013-09-23 14:45:00,80.1,58.6,29.91,SSE,158,2.2,2.2,48,0.00,,---,0.00,VWS V14.01,2013-09-23 21:45:00,
2013-09-23 14:50:00,80.6,57.3,29.91,NW,315,2.2,4.9,45,0.00,,---,0.00,VWS V14.01,2013-09-23 21:50:00,
2013-09-23 14:55:00,80.6,58.5,29.91,West,270,3.8,4.0,47,0.00,,---,0.00,VWS V14.01,2013-09-23 21:55:00,
2013-09-23 15:00:00,80.8,56.9,29.91,West,270,2.0,3.1,44,0.00,,---,0.00,VWS V14.01,2013-09-23 22:00:00,
2013-09-23 15:05:00,81.7,58.3,29.91,West,270,1.6,4.5,45,0.00,,---,0.00,VWS V14.01,2013-09-23 22:05:00,
2013-09-23 15:10:00,82.2,59.4,29.91,NNW,338,2.0,2.5,46,0.00,,---,0.00,VWS V14.01,2013-09-23 22:10:00,
2013-09-23 15:15:00,82.2,59.4,29.91,NW,315,2.5,2.5,46,0.00,,---,0.00,VWS V14.01,2013-09-23 22:15:00,
2013-09-23 15:20:00,81.9,58.5,29.91,NW,315,0.9,3.8,45,0.00,,---,0.00,VWS V14.01,2013-09-23 22:20:00,
2013-09-23 15:25:00,82.0,58.6,29.91,South,180,1.6,3.6,45,0.00,,---,0.00,VWS V14.01,2013-09-23 22:25:00,
2013-09-23 15:30:00,82.9,60.0,29.91,SSE,158,3.1,3.6,46,0.00,,---,0.00,VWS V14.01,2013-09-23 22:30:00,
2013-09-23 15:35:00,82.8,60.5,29.91,West,270,2.0,4.9,47,0.00,,---,0.00,VWS V14.01,2013-09-23 22:35:00,
2013-09-23 15:40:00,82.4,60.8,29.91,West,270,4.9,5.4,48,0.00,,---,0.00,VWS V14.01,2013-09-23 22:40:00,
2013-09-23 15:45:00,81.9,60.8,29.91,South,180,5.6,6.5,49,0.00,,---,0.00,VWS V14.01,2013-09-23 22:45:00,
2013-09-23 15:50:00,82.0,60.4,29.91,West,270,7.4,7.4,48,0.00,,---,0.00,VWS V14.01,2013-09-23 22:50:00,
2013-09-23 15:55:00,81.9,60.3,29.91,East,90,2.9,5.8,48,0.00,,---,0.00,VWS V14.01,2013-09-23 22:55:00,
2013-09-23 16:00:00,81.7,60.1,29.91,South,180,3.6,6.0,48,0.00,,---,0.00,VWS V14.01,2013-09-23 23:00:00,
2013-09-23 16:05:00,81.5,59.9,29.91,South,180,3.8,4.0,48,0.00,,---,0.00,VWS V14.01,2013-09-23 23:05:00,
2013-09-23 16:10:00,81.7,60.1,29.91,South,180,2.2,4.5,48,0.00,,---,0.00,VWS V14.01,2013-09-23 23:10:00,
2013-09-23 16:15:00,81.7,59.5,29.91,West,270,2.5,2.9,47,0.00,,---,0.00,VWS V14.01,2013-09-23 23:15:00,
2013-09-23 16:20:00,81.5,59.9,29.91,North,0,3.4,5.4,48,0.00,,---,0.00,VWS V14.01,2013-09-23 23:20:00,
2013-09-23 16:25:00,81.7,60.1,29.91,NW,315,2.9,3.1,48,0.00,,---,0.00,VWS V14.01,2013-09-23 23:25:00,
2013-09-23 16:30:00,81.1,59.0,29.91,West,270,4.7,4.7,47,0.00,,---,0.00,VWS V14.01,2013-09-23 23:30:00,
2013-09-23 16:35:00,81.3,59.2,29.91,NE,45,5.6,5.6,47,0.00,,---,0.00,VWS V14.01,2013-09-23 23:35:00,
2013-09-23 16:40:00,81.3,59.2,29.91,South,180,3.6,3.6,47,0.00,,---,0.00,VWS V14.01,2013-09-23 23:40:00,
2013-09-23 16:45:00,81.1,59.0,29.91,South,180,3.8,4.3,47,0.00,,---,0.00,VWS V14.01,2013-09-23 23:45:00,
2013-09-23 16:50:00,81.0,58.9,29.91,NW,315,2.0,4.7,47,0.00,,---,0.00,VWS V14.01,2013-09-23 23:50:00,
2013-09-23 16:55:00,81.0,58.3,29.91,South,180,2.7,8.5,46,0.00,,---,0.00,VWS V14.01,2013-09-23 23:55:00,
2013-09-23 17:00:00,80.4,59.0,29.91,NW,315,2.0,5.6,48,0.00,,---,0.00,VWS V14.01,2013-09-24 00:00:00,
2013-09-23 17:05:00,80.2,58.8,29.91,South,180,2.9,6.0,48,0.00,,---,0.00,VWS V14.01,2013-09-24 00:05:00,
2013-09-23 17:10:00,79.9,58.5,29.91,South,180,1.6,5.4,48,0.00,,---,0.00,VWS V14.01,2013-09-24 00:10:00,
2013-09-23 17:15:00,79.3,58.5,29.91,South,180,2.0,6.3,49,0.00,,---,0.00,VWS V14.01,2013-09-24 00:15:00,
2013-09-23 17:20:00,79.2,58.4,29.91,ESE,112,3.6,4.0,49,0.00,,---,0.00,VWS V14.01,2013-09-24 00:20:00,
2013-09-23 17:25:00,78.6,58.4,29.91,West,270,3.8,4.0,50,0.00,,---,0.00,VWS V14.01,2013-09-24 00:25:00,
2013-09-23 17:30:00,78.6,58.4,29.91,West,270,4.7,4.7,50,0.00,,---,0.00,VWS V14.01,2013-09-24 00:30:00,
2013-09-23 17:35:00,78.6,58.4,29.91,SSE,158,2.5,3.8,50,0.00,,---,0.00,VWS V14.01,2013-09-24 00:35:00,
2013-09-23 17:40:00,78.6,58.4,29.91,South,180,3.4,3.4,50,0.00,,---,0.00,VWS V14.01,2013-09-24 00:40:00,
2013-09-23 17:45:00,78.6,58.4,29.91,South,180,2.0,2.9,50,0.00,,---,0.00,VWS V14.01,2013-09-24 00:45:00,
2013-09-23 17:50:00,78.6,58.4,29.91,West,270,3.6,3.6,50,0.00,,---,0.00,VWS V14.01,2013-09-24 00:50:00,
2013-09-23 17:55:00,78.6,58.4,29.91,South,180,2.7,3.8,50,0.00,,---,0.00,VWS V14.01,2013-09-24 00:55:00,
2013-09-23 18:00:00,78.6,58.4,29.91,NW,315,1.1,3.1,50,0.00,,---,0.00,VWS V14.01,2013-09-24 01:00:00,
2013-09-23 18:05:00,78.6,58.4,29.91,East,90,5.6,5.6,50,0.00,,---,0.00,VWS V14.01,2013-09-24 01:05:00,
2013-09-23 18:10:00,78.6,58.4,29.91,East,90,3.8,3.8,50,0.00,,---,0.00,VWS V14.01,2013-09-24 01:10:00,
2013-09-23 18:16:00,78.6,58.4,29.91,South,180,1.3,3.4,50,0.00,,---,0.00,VWS V14.01,2013-09-24 01:16:00,
2013-09-23 18:21:00,78.6,58.4,29.91,South,180,1.6,3.6,50,0.00,,---,0.00,VWS V14.01,2013-09-24 01:21:00,
2013-09-23 18:26:00,78.6,58.4,29.91,SSE,158,1.6,2.7,50,0.00,,---,0.00,VWS V14.01,2013-09-24 01:26:00,
2013-09-23 18:31:00,78.6,58.4,29.91,SE,135,4.7,4.7,50,0.00,,---,0.00,VWS V14.01,2013-09-24 01:31:00,
2013-09-23 18:36:00,78.6,58.4,29.91,SE,135,2.7,3.6,50,0.00,,---,0.00,VWS V14.01,2013-09-24 01:36:00,
2013-09-23 18:41:00,78.6,58.4,29.91,SE,135,2.5,3.4,50,0.00,,---,0.00,VWS V14.01,2013-09-24 01:41:00,
2013-09-23 18:46:00,78.6,58.4,29.91,SE,135,3.1,3.1,50,0.00,,---,0.00,VWS V14.01,2013-09-24 01:46:00,
2013-09-23 18:51:00,78.6,58.4,29.91,ESE,112,2.5,4.3,50,0.00,,---,0.00,VWS V14.01,2013-09-24 01:51:00,
2013-09-23 18:56:00,78.6,58.4,29.91,SSE,158,0.0,4.0,50,0.00,,---,0.00,VWS V14.01,2013-09-24 01:56:00,
2013-09-23 19:01:00,78.6,58.4,29.91,West,270,2.7,2.7,50,0.00,,---,0.00,VWS V14.01,2013-09-24 02:01:00,
2013-09-23 19:06:00,78.6,58.4,29.91,South,180,0.9,2.0,50,0.00,,---,0.00,VWS V14.01,2013-09-24 02:06:00,
2013-09-23 19:11:00,78.6,58.4,29.91,South,180,1.6,2.5,50,0.00,,---,0.00,VWS V14.01,2013-09-24 02:11:00,
2013-09-23 19:16:00,78.6,58.4,29.91,South,180,1.6,5.6,50,0.00,,---,0.00,VWS V14.01,2013-09-24 02:16:00,
2013-09-23 19:21:00,78.6,58.4,29.91,SSE,158,2.7,4.9,50,0.00,,---,0.00,VWS V14.01,2013-09-24 02:21:00,
2013-09-23 19:26:00,78.6,58.4,29.91,South,180,2.2,2.7,50,0.00,,---,0.00,VWS V14.01,2013-09-24 02:26:00,
2013-09-23 19:31:00,78.6,58.4,29.91,SSE,158,3.8,8.1,50,0.00,,---,0.00,VWS V14.01,2013-09-24 02:31:00,
2013-09-23 19:36:00,78.6,58.4,29.91,SE,135,3.6,4.0,50,0.00,,---,0.00,VWS V14.01,2013-09-24 02:36:00,
2013-09-23 19:41:00,78.6,58.4,29.91,SE,135,2.5,3.8,50,0.00,,---,0.00,VWS V14.01,2013-09-24 02:41:00,
2013-09-23 19:46:00,78.6,58.4,29.91,South,180,1.6,2.9,50,0.00,,---,0.00,VWS V14.01,2013-09-24 02:46:00,
2013-09-23 19:51:00,78.6,58.4,29.91,SSW,202,0.9,0.9,50,0.00,,---,0.00,VWS V14.01,2013-09-24 02:51:00,
2013-09-23 19:56:00,78.6,58.4,29.91,West,270,0.0,0.0,50,0.00,,---,0.00,VWS V14.01,2013-09-24 02:56:00,
2013-09-23 20:01:00,78.6,58.4,29.91,South,180,1.1,1.1,50,0.00,,---,0.00,VWS V14.01,2013-09-24 03:01:00,
2013-09-23 21:16:00,74.7,57.4,29.59,SE,135,0.0,0.0,55,0.00,,---,0.00,VWS V14.01,2013-09-24 04:16:00,
2013-09-23 21:18:00,74.3,57.1,29.59,SE,135,0.0,0.0,55,0.00,,---,0.00,VWS V14.01,2013-09-24 04:18:00,
2013-09-23 21:20:00,74.1,56.9,29.94,SE,135,0.0,0.0,55,0.00,,---,0.00,VWS V14.01,2013-09-24 04:20:00,
2013-09-23 21:23:00,73.9,56.8,29.94,SE,135,0.0,0.0,55,0.00,,---,0.00,VWS V14.01,2013-09-24 04:23:00,
2013-09-23 21:26:00,74.1,56.9,29.94,South,180,0.0,1.3,55,0.00,,---,0.00,VWS V14.01,2013-09-24 04:26:00,
2013-09-23 21:31:00,74.1,56.9,29.94,South,180,0.0,0.0,55,0.00,,---,0.00,VWS V14.01,2013-09-24 04:31:00,
2013-09-23 21:36:00,74.1,56.9,29.94,South,180,0.0,0.0,55,0.00,,---,0.00,VWS V14.01,2013-09-24 04:36:00,
2013-09-23 21:41:00,74.1,56.9,29.94,South,180,0.0,0.0,55,0.00,,---,0.00,VWS V14.01,2013-09-24 04:41:00,
2013-09-23 21:46:00,74.1,56.9,29.94,South,180,0.0,0.0,55,0.00,,---,0.00,VWS V14.01,2013-09-24 04:46:00,
2013-09-23 21:51:00,74.1,56.9,29.94,South,180,0.0,0.0,55,0.00,,---,0.00,VWS V14.01,2013-09-24 04:51:00,
2013-09-23 21:56:00,74.1,56.9,29.94,South,180,0.0,0.0,55,0.00,,---,0.00,VWS V14.01,2013-09-24 04:56:00,
2013-09-23 22:01:00,74.1,56.9,29.94,SSE,158,0.0,2.0,55,0.00,,---,0.00,VWS V14.01,2013-09-24 05:01:00,
2013-09-23 22:06:00,74.1,56.9,29.94,South,180,0.0,1.1,55,0.00,,---,0.00,VWS V14.01,2013-09-24 05:06:00,
2013-09-23 22:11:00,74.1,56.9,29.94,ENE,68,0.0,0.0,55,0.00,,---,0.00,VWS V14.01,2013-09-24 05:11:00,
2013-09-23 22:16:00,74.1,56.9,29.94,SE,135,0.0,2.5,55,0.00,,---,0.00,VWS V14.01,2013-09-24 05:16:00,
2013-09-23 22:21:00,68.2,57.6,29.94,ENE,68,0.0,0.9,69,0.00,,---,0.00,VWS V14.01,2013-09-24 05:21:00,
2013-09-23 22:26:00,70.0,58.1,29.94,ENE,68,0.0,0.0,66,0.00,,---,0.00,VWS V14.01,2013-09-24 05:26:00,
2013-09-23 22:31:00,70.9,58.1,29.94,East,90,0.0,1.3,64,0.00,,---,0.00,VWS V14.01,2013-09-24 05:31:00,
2013-09-23 22:36:00,71.4,58.2,29.94,ENE,68,0.0,0.0,63,0.00,,---,0.00,VWS V14.01,2013-09-24 05:36:00,
2013-09-23 22:41:00,71.6,57.9,29.94,East,90,0.0,0.0,62,0.00,,---,0.00,VWS V14.01,2013-09-24 05:41:00,
2013-09-23 22:46:00,72.0,57.8,29.94,ENE,68,0.0,0.0,61,0.00,,---,0.00,VWS V14.01,2013-09-24 05:46:00,
2013-09-23 22:51:00,72.1,57.5,29.94,East,90,0.0,2.5,60,0.00,,---,0.00,VWS V14.01,2013-09-24 05:51:00,
2013-09-23 22:56:00,72.3,57.7,29.94,ESE,112,2.5,2.5,60,0.00,,---,0.00,VWS V14.01,2013-09-24 05:56:00,
2013-09-23 23:01:00,72.5,57.4,29.94,SE,135,1.6,1.6,59,0.00,,---,0.00,VWS V14.01,2013-09-24 06:01:00,
2013-09-23 23:06:00,72.5,57.4,29.94,ENE,68,0.0,1.6,59,0.00,,---,0.00,VWS V14.01,2013-09-24 06:06:00,
2013-09-23 23:11:00,72.7,57.5,29.94,NE,45,0.9,0.9,59,0.00,,---,0.00,VWS V14.01,2013-09-24 06:11:00,
2013-09-23 23:16:00,72.7,57.1,29.94,SSE,158,0.0,0.0,58,0.00,,---,0.00,VWS V14.01,2013-09-24 06:16:00,
2013-09-23 23:21:00,72.7,57.1,29.94,NE,45,0.0,0.0,58,0.00,,---,0.00,VWS V14.01,2013-09-24 06:21:00,
2013-09-23 23:26:00,72.7,57.1,29.94,NNE,22,0.0,0.0,58,0.00,,---,0.00,VWS V14.01,2013-09-24 06:26:00,
2013-09-23 23:31:00,72.7,57.1,29.94,WNW,292,0.0,2.5,58,0.00,,---,0.00,VWS V14.01,2013-09-24 06:31:00,
2013-09-23 23:36:00,72.7,57.1,29.94,NNW,338,0.0,0.0,58,0.00,,---,0.00,VWS V14.01,2013-09-24 06:36:00,
2013-09-23 23:43:00,72.7,56.6,29.94,East,90,0.0,0.0,57,0.00,,---,0.00,VWS V14.01,2013-09-24 06:43:00,
2013-09-23 23:48:00,72.7,56.6,29.94,SE,135,0.0,0.0,57,0.00,,---,0.00,VWS V14.01,2013-09-24 06:48:00,
2013-09-23 23:53:00,72.7,56.6,29.94,SW,225,0.0,0.0,57,0.00,,---,0.00,VWS V14.01,2013-09-24 06:53:00,
2013-09-23 23:58:00,72.7,56.6,29.94,West,270,0.0,0.0,57,0.00,,---,0.00,VWS V14.01,2013-09-24 06:58:00,